When you browse on this site, cookies collect data to enhance your experience and personalize the content and advertising you see.
Visit our Privacy Policy to learn more. By continuing to use the site, you agree to this use of cookies and data.
  • Em Portugal
  • Lista de países
  • Para 7 dias
  • Temperatura da água
  • Mapa do tempo
  • Widgets de tempo
  • user-avatar
    Iniciar Sessão

    Previsão horária em Georgetown

    Hoje, 29 Fevereiro, Sábado

    Tempo Temperatura Precipitação Vento Pressão Humidade
    00:00 +29°C° 0 mm 5 m/s 734 mmHg 27%
    01:00 +29°C° 0 mm 5 m/s 734 mmHg 26%
    02:00 +28°C° 0 mm 5 m/s 733 mmHg 26%
    03:00 +28°C° 0 mm 5 m/s 733 mmHg 26%
    04:00 +28°C° 0 mm 5 m/s 733 mmHg 27%
    05:00 +28°C° 0 mm 5 m/s 733 mmHg 27%
    06:00 +27°C° 0 mm 5 m/s 733 mmHg 27%
    07:00 +27°C° 0 mm 5 m/s 734 mmHg 27%
    08:00 +29°C° 0 mm 5 m/s 734 mmHg 25%
    09:00 +32°C° 0 mm 5 m/s 734 mmHg 24%
    10:00 +34°C° 0 mm 5 m/s 735 mmHg 22%
    11:00 +34°C° 0 mm 4 m/s 734 mmHg 24%
    12:00 +35°C° 0 mm 3 m/s 733 mmHg 25%
    13:00 +35°C° 0 mm 2 m/s 732 mmHg 27%
    14:00 +35°C° 0 mm 2 m/s 732 mmHg 27%
    15:00 +35°C° 0 mm 2 m/s 731 mmHg 28%
    16:00 +35°C° 0 mm 2 m/s 731 mmHg 29%
    17:00 +34°C° 0 mm 2 m/s 731 mmHg 29%
    18:00 +32°C° 0 mm 2 m/s 731 mmHg 30%
    19:00 +31°C° 0 mm 3 m/s 731 mmHg 30%
    20:00 +31°C° 0 mm 3 m/s 732 mmHg 29%
    21:00 +30°C° 0 mm 4 m/s 733 mmHg 28%
    22:00 +30°C° 0 mm 5 m/s 733 mmHg 28%
    23:00 +29°C° 0 mm 5 m/s 733 mmHg 27%

    Amanhã, 1 Março, Domingo

    Tempo Temperatura Precipitação Vento Pressão Humidade
    00:00 +29°C° 0 mm 6 m/s 732 mmHg 27%
    01:00 +28°C° 0 mm 6 m/s 732 mmHg 26%
    02:00 +28°C° 0 mm 7 m/s 732 mmHg 26%
    03:00 +28°C° 0 mm 7 m/s 732 mmHg 26%
    04:00 +27°C° 0 mm 8 m/s 732 mmHg 25%
    05:00 +27°C° 0 mm 8 m/s 732 mmHg 26%
    06:00 +27°C° 0 mm 8 m/s 733 mmHg 26%
    07:00 +27°C° 0 mm 8 m/s 733 mmHg 27%
    08:00 +28°C° 0 mm 8 m/s 733 mmHg 27%
    09:00 +31°C° 0 mm 8 m/s 734 mmHg 26%
    10:00 +32°C° 0 mm 7 m/s 734 mmHg 26%
    11:00 +33°C° 0 mm 6 m/s 734 mmHg 26%
    12:00 +34°C° 0 mm 5 m/s 733 mmHg 26%
    13:00 +35°C° 0 mm 4 m/s 732 mmHg 26%
    14:00 +35°C° 0 mm 3 m/s 731 mmHg 26%
    15:00 +35°C° 0 mm 2 m/s 731 mmHg 27%
    16:00 +35°C° 0 mm 1 m/s 730 mmHg 28%
    17:00 +34°C° 0 mm 2 m/s 731 mmHg 29%
    18:00 +32°C° 0 mm 2 m/s 731 mmHg 31%
    19:00 +30°C° 0 mm 3 m/s 731 mmHg 33%
    20:00 +30°C° 0 mm 4 m/s 732 mmHg 31%
    21:00 +30°C° 0 mm 5 m/s 732 mmHg 29%
    22:00 +30°C° 0 mm 6 m/s 733 mmHg 28%
    23:00 +29°C° 0 mm 6 m/s 733 mmHg 27%

    Depois de amanhã, 2 Março, Segunda-feira

    Tempo Temperatura Precipitação Vento Pressão Humidade
    00:00 +29°C° 0 mm 7 m/s 732 mmHg 26%
    01:00 +28°C° 0 mm 8 m/s 732 mmHg 25%
    02:00 +28°C° 0 mm 8 m/s 732 mmHg 25%
    03:00 +28°C° 0 mm 8 m/s 732 mmHg 25%
    04:00 +28°C° 0 mm 8 m/s 732 mmHg 25%
    05:00 +28°C° 0 mm 8 m/s 733 mmHg 26%
    06:00 +27°C° 0 mm 8 m/s 733 mmHg 26%
    07:00 +27°C° 0 mm 8 m/s 734 mmHg 27%
    08:00 +28°C° 0 mm 7 m/s 734 mmHg 27%
    09:00 +30°C° 0 mm 7 m/s 735 mmHg 26%
    10:00 +32°C° 0 mm 6 m/s 735 mmHg 26%
    11:00 +33°C° 0 mm 5 m/s 734 mmHg 26%
    12:00 +34°C° 0 mm 4 m/s 733 mmHg 26%
    13:00 +35°C° 0 mm 4 m/s 733 mmHg 25%
    14:00 +35°C° 0 mm 3 m/s 732 mmHg 27%
    15:00 +35°C° 0 mm 2 m/s 732 mmHg 28%
    16:00 +35°C° 0 mm 2 m/s 731 mmHg 29%
    17:00 +34°C° 0 mm 3 m/s 731 mmHg 30%
    18:00 +33°C° 0 mm 4 m/s 732 mmHg 30%
    19:00 +30°C° 0 mm 4 m/s 732 mmHg 31%
    20:00 +30°C° 0 mm 6 m/s 732 mmHg 28%
    21:00 +32°C° 0 mm 7 m/s 733 mmHg 25%
    22:00 +32°C° 0 mm 8 m/s 733 mmHg 23%
    23:00 +31°C° 0 mm 8 m/s 733 mmHg 23%

    3 Março, Terça-feira

    Tempo Temperatura Precipitação Vento Pressão Humidade
    00:00 +31°C° 0 mm 8 m/s 733 mmHg 23%
    01:00 +29°C° 0 mm 8 m/s 733 mmHg 24%
    02:00 +29°C° 0 mm 7 m/s 733 mmHg 25%
    03:00 +28°C° 0 mm 6 m/s 733 mmHg 26%
    04:00 +28°C° 0 mm 6 m/s 733 mmHg 27%
    05:00 +27°C° 0 mm 6 m/s 733 mmHg 28%
    06:00 +27°C° 0 mm 6 m/s 734 mmHg 28%
    07:00 +27°C° 0 mm 6 m/s 734 mmHg 29%
    08:00 +29°C° 0 mm 6 m/s 735 mmHg 27%
    09:00 +32°C° 0 mm 6 m/s 735 mmHg 25%
    10:00 +34°C° 0 mm 7 m/s 736 mmHg 23%
    11:00 +35°C° 0 mm 6 m/s 735 mmHg 23%
    12:00 +36°C° 0 mm 5 m/s 734 mmHg 24%
    13:00 +36°C° 0 mm 5 m/s 733 mmHg 24%
    14:00 +36°C° 0 mm 4 m/s 733 mmHg 25%
    15:00 +36°C° 0 mm 3 m/s 732 mmHg 26%
    16:00 +36°C° 0 mm 2 m/s 732 mmHg 27%
    17:00 +35°C° 0 mm 3 m/s 732 mmHg 27%
    18:00 +34°C° 0 mm 3 m/s 733 mmHg 27%
    19:00 +32°C° 0 mm 4 m/s 733 mmHg 27%
    20:00 +32°C° 0 mm 5 m/s 733 mmHg 26%
    21:00 +30°C° 0 mm 5 m/s 734 mmHg 25%
    22:00 +30°C° 0 mm 6 m/s 734 mmHg 24%
    23:00 +29°C° 0 mm 7 m/s 734 mmHg 24%

    4 Março, Quarta-feira

    Tempo Temperatura Precipitação Vento Pressão Humidade
    00:00 +29°C° 0 mm 7 m/s 733 mmHg 24%
    01:00 +29°C° 0 mm 8 m/s 733 mmHg 24%
    02:00 +29°C° 0 mm 7 m/s 733 mmHg 24%
    03:00 +29°C° 0 mm 7 m/s 733 mmHg 24%
    04:00 +29°C° 0 mm 7 m/s 733 mmHg 24%
    05:00 +28°C° 0 mm 6 m/s 733 mmHg 25%
    06:00 +28°C° 0 mm 6 m/s 734 mmHg 26%
    07:00 +28°C° 0 mm 6 m/s 734 mmHg 26%
    08:00 +30°C° 0 mm 6 m/s 735 mmHg 25%
    09:00 +32°C° 0 mm 6 m/s 735 mmHg 24%
    10:00 +34°C° 0 mm 6 m/s 735 mmHg 23%
    11:00 +35°C° 0 mm 5 m/s 735 mmHg 23%
    12:00 +36°C° 0 mm 5 m/s 734 mmHg 24%
    13:00 +37°C° 0 mm 4 m/s 733 mmHg 24%
    14:00 +36°C° 0 mm 3 m/s 733 mmHg 25%
    15:00 +36°C° 0 mm 3 m/s 732 mmHg 25%
    16:00 +36°C° 0 mm 2 m/s 732 mmHg 26%
    17:00 +34°C° 0 mm 2 m/s 732 mmHg 29%
    18:00 +31°C° 0 mm 2 m/s 732 mmHg 32%
    19:00 +29°C° 0 mm 2 m/s 732 mmHg 34%
    20:00 +29°C° 0 mm 2 m/s 733 mmHg 33%
    21:00 +28°C° 0 mm 2 m/s 733 mmHg 33%
    22:00 +28°C° 0 mm 3 m/s 734 mmHg 32%
    23:00 +28°C° 0 mm 3 m/s 733 mmHg 30%

    5 Março, Quinta-feira

    Tempo Temperatura Precipitação Vento Pressão Humidade
    00:00 +28°C° 0 mm 4 m/s 733 mmHg 28%
    01:00 +28°C° 0 mm 5 m/s 733 mmHg 26%
    02:00 +28°C° 0 mm 5 m/s 733 mmHg 26%
    03:00 +28°C° 0 mm 5 m/s 732 mmHg 26%
    04:00 +28°C° 0 mm 5 m/s 732 mmHg 26%
    05:00 +27°C° 0 mm 5 m/s 732 mmHg 27%
    06:00 +27°C° 0 mm 5 m/s 733 mmHg 27%
    07:00 +27°C° 0 mm 5 m/s 733 mmHg 27%
    08:00 +29°C° 0 mm 5 m/s 733 mmHg 25%
    09:00 +33°C° 0 mm 5 m/s 734 mmHg 23%
    10:00 +35°C° 0 mm 5 m/s 734 mmHg 21%
    11:00 +36°C° 0 mm 4 m/s 733 mmHg 21%
    12:00 +37°C° 0 mm 4 m/s 733 mmHg 21%
    13:00 +38°C° 0 mm 3 m/s 732 mmHg 21%
    14:00 +38°C° 0 mm 3 m/s 731 mmHg 21%
    15:00 +38°C° 0 mm 3 m/s 731 mmHg 21%
    16:00 +38°C° 0 mm 3 m/s 730 mmHg 21%
    17:00 +36°C° 0 mm 4 m/s 731 mmHg 20%
    18:00 +35°C° 0 mm 4 m/s 731 mmHg 20%
    19:00 +33°C° 0 mm 5 m/s 732 mmHg 19%
    20:00 +32°C° 0 mm 5 m/s 732 mmHg 20%
    21:00 +32°C° 0 mm 6 m/s 732 mmHg 20%
    22:00 +30°C° 0 mm 7 m/s 733 mmHg 21%
    23:00 +29°C° 0 mm 7 m/s 732 mmHg 21%
    Mostrar mais